Location: Chassagnes
(44.4047°N, 4.1657°E)
Time: 13:08:21
(UTC+00:00)

BREEZE-M R/B - Pass Details

Date: 27 October 2020
Orbit: 310 x 4523 km, 49.7° (Epoch: 23 November)

Event Time Altitude Azimuth Distance (km) Brightness Sun altitude
Rises 17:53:42 0° 288° (WNW) 2,444 7.5 -13.8°
Reaches altitude 10° 17:55:21 10° 295° (WNW) 1,774 6.4 -14.1°
Maximum altitude 17:59:06 49° 12° (NNE) 996 4.0 -14.8°
Enters shadow 18:03:20 21° 77° (ENE) 2,265 5.3 -15.6°
